Weather History for KFDR - October, 2012

Change the Weather History Date:

Friday, October 26, 2012

  Actual Average (KLTS) Record (KLTS)
Temperature  
Mean Temperature 47 °F -  
Max Temperature 55 °F 68 °F 91 °F (2014)
Min Temperature 37 °F 47 °F 33 °F (1997)
Degree Days  
Heating Degree Days 18    
Moisture  
Dew Point 27 °F    
Average Humidity 52    
Maximum Humidity 73    
Minimum Humidity 29    
Precipitation  
Precipitation 0.00 in - - ()
Sea Level Pressure  
Sea Level Pressure 30.32 in    
Wind  
Wind Speed 14 mph (NNE)    
Max Wind Speed 29 mph    
Max Gust Speed 34 mph    
Visibility 10 miles    
Events      
Averages and records for this station are not official NWS values.
T = Trace of Precipitation, MM = Missing Value Source: NWS Daily Summary

Daily Weather History Graph

Daily Weather History Graph

Search for Another Location

Airport or City:

Trip Planner

Search our weather history database for the weather conditions in past years. The results will help you decide how hot, cold, wet, or windy it might be!

Date:

Astronomy

Oct. 26, 2012 Rise Set
Actual Time 7:51 AM CDT 6:48 PM CDT
Civil Twilight 7:25 AM CDT 7:13 PM CDT
Nautical Twilight 6:55 AM CDT 7:43 PM CDT
Astronomical Twilight 6:26 AM CDT 8:12 PM CDT
Moon 4:59 PM CDT (10/26) 4:55 AM CDT (10/26)
Length of Visible Light 11h 48m
Length of Day
10h 57m
Waxing Gibbous, 91% of the Moon is Illuminated
Oct 26
Waxing Gibbous
Oct 29
Full
Nov 6
Last Quarter
Nov 13
New
Nov 20
First Quarter

Hourly Weather History & Observations

Time (CDT) Temp. Windchill Dew Point Humidity Pressure Visibility Wind Dir Wind Speed Gust Speed Precip Events Conditions
12:53 AM 46.0 °F 41.9 °F 33.1 °F 61% 30.19 in 10.0 mi NE 8.1 mph - N/A   Clear
1:53 AM 44.1 °F 39.5 °F 33.1 °F 65% 30.21 in 10.0 mi NNE 8.1 mph - N/A   Clear
2:53 AM 42.1 °F 37.7 °F 32.0 °F 67% 30.22 in 10.0 mi North 6.9 mph - N/A   Clear
3:53 AM 41.0 °F 34.7 °F 32.0 °F 70% 30.22 in 10.0 mi North 10.4 mph - N/A   Clear
4:53 AM 41.0 °F 33.9 °F 32.0 °F 70% 30.24 in 10.0 mi North 12.7 mph - N/A   Clear
5:53 AM 41.0 °F 32.5 °F 30.9 °F 67% 30.25 in 10.0 mi North 17.3 mph - N/A   Clear
6:53 AM 39.0 °F 30.3 °F 30.9 °F 73% 30.28 in 10.0 mi North 16.1 mph - N/A   Clear
8:53 AM 39.0 °F 28.5 °F 30.0 °F 70% 30.34 in 10.0 mi North 23.0 mph 31.1 mph N/A   Clear
10:53 AM 42.1 °F 31.5 °F 28.0 °F 58% 30.41 in 10.0 mi North 28.8 mph 34.5 mph N/A   Clear
11:53 AM 45.0 °F 35.8 °F 28.0 °F 52% 30.40 in 10.0 mi North 26.5 mph 33.4 mph N/A   Clear
12:53 PM 48.9 °F - 27.0 °F 43% 30.38 in 10.0 mi North 24.2 mph 32.2 mph N/A   Clear
1:53 PM 51.1 °F - 26.1 °F 38% 30.35 in 10.0 mi North 23.0 mph 31.1 mph N/A   Clear
2:53 PM 53.1 °F - 25.0 °F 34% 30.34 in 10.0 mi NNE 21.9 mph 31.1 mph N/A   Clear
3:53 PM 54.0 °F - 23.0 °F 30% 30.32 in 10.0 mi North 21.9 mph - N/A   Clear
4:53 PM 55.0 °F - 23.0 °F 29% 30.31 in 10.0 mi NNE 19.6 mph - N/A   Clear
5:53 PM 53.1 °F - 21.9 °F 30% 30.32 in 10.0 mi NNE 17.3 mph - N/A   Clear
6:53 PM 48.9 °F - 21.9 °F 35% 30.33 in 10.0 mi North 12.7 mph - N/A   Clear
7:53 PM 45.0 °F 39.7 °F 21.9 °F 40% 30.36 in 10.0 mi NNE 10.4 mph - N/A   Clear
8:53 PM 43.0 °F 37.2 °F 23.0 °F 45% 30.37 in 10.0 mi NNE 10.4 mph - N/A   Clear
9:53 PM 39.9 °F 33.9 °F 23.0 °F 51% 30.37 in 10.0 mi North 9.2 mph - N/A   Clear
10:53 PM 39.0 °F 32.3 °F 23.0 °F 53% 30.38 in 10.0 mi North 10.4 mph - N/A   Clear
11:53 PM 37.9 °F 31.5 °F 21.9 °F 53% 30.37 in 10.0 mi North 9.2 mph - N/A   Clear